Time,TemperatureF,DewpointF,PressureIn,WindDirection,WindDirectionDegrees,WindSpeedMPH,WindSpeedGustMPH,Humidity,HourlyPrecipIn,Conditions,Clouds,dailyrainin,SoftwareType,DateUTC
2013-01-13 00:08:00,9.5,1.0,30.01,WSW,258,0.0,-999.0,67,-99.99,,,0.00,weatherlink.com 1.10,2013-01-13 06:08:00,
2013-01-13 00:23:00,9.2,1.0,30.02,West,273,0.0,-999.0,68,-99.99,,,0.00,weatherlink.com 1.10,2013-01-13 06:23:00,
2013-01-13 00:38:00,8.8,1.0,30.01,West,275,0.0,-999.0,69,-99.99,,,0.00,weatherlink.com 1.10,2013-01-13 06:38:00,
2013-01-13 00:53:00,8.6,1.0,30.00,WNW,284,0.0,-999.0,70,-99.99,,,0.00,weatherlink.com 1.10,2013-01-13 06:53:00,
2013-01-13 01:09:00,8.4,1.0,30.00,NW,306,0.0,-999.0,72,-99.99,,,0.00,weatherlink.com 1.10,2013-01-13 07:09:00,
2013-01-13 01:24:00,8.3,1.0,30.01,North,355,2.0,-999.0,73,-99.99,,,0.00,weatherlink.com 1.10,2013-01-13 07:24:00,
2013-01-13 01:39:00,8.3,1.0,30.01,NNE,23,1.0,-999.0,71,-99.99,,,0.00,weatherlink.com 1.10,2013-01-13 07:39:00,
2013-01-13 01:54:00,8.1,0.0,30.01,WNW,284,1.0,-999.0,69,-99.99,,,0.00,weatherlink.com 1.10,2013-01-13 07:54:00,
2013-01-13 02:09:00,7.9,-1.0,30.01,NE,51,1.0,-999.0,68,-99.99,,,0.00,weatherlink.com 1.10,2013-01-13 08:09:00,
2013-01-13 02:24:00,7.7,-1.0,30.01,NNE,24,1.0,-999.0,69,-99.99,,,0.00,weatherlink.com 1.10,2013-01-13 08:24:00,
2013-01-13 02:39:00,7.4,-1.0,30.01,NE,53,0.0,-999.0,69,-99.99,,,0.00,weatherlink.com 1.10,2013-01-13 08:39:00,
2013-01-13 02:55:00,7.2,-1.0,30.01,WNW,292,0.0,-999.0,69,-99.99,,,0.00,weatherlink.com 1.10,2013-01-13 08:55:00,
2013-01-13 03:10:00,6.9,-1.0,30.02,West,269,1.0,-999.0,70,-99.99,,,0.00,weatherlink.com 1.10,2013-01-13 09:10:00,
2013-01-13 03:25:00,6.5,-1.0,30.02,NW,317,1.0,-999.0,71,-99.99,,,0.00,weatherlink.com 1.10,2013-01-13 09:25:00,
2013-01-13 03:40:00,6.3,-1.0,30.02,NNE,13,1.0,-999.0,71,-99.99,,,0.00,weatherlink.com 1.10,2013-01-13 09:40:00,
2013-01-13 03:55:00,6.3,-1.0,30.01,West,277,1.0,-999.0,71,-99.99,,,0.00,weatherlink.com 1.10,2013-01-13 09:55:00,
2013-01-13 04:10:00,6.1,-1.0,30.00,West,275,2.0,-999.0,72,-99.99,,,0.00,weatherlink.com 1.10,2013-01-13 10:10:00,
2013-01-13 04:25:00,6.1,-1.0,29.99,West,273,0.0,-999.0,72,-99.99,,,0.00,weatherlink.com 1.10,2013-01-13 10:25:00,
2013-01-13 04:40:00,6.3,-1.0,29.99,NE,36,0.0,-999.0,73,-99.99,,,0.00,weatherlink.com 1.10,2013-01-13 10:40:00,
2013-01-13 04:55:00,6.3,-1.0,29.99,West,281,1.0,-999.0,73,-99.99,,,0.00,weatherlink.com 1.10,2013-01-13 10:55:00,
2013-01-13 05:10:00,6.3,-1.0,29.99,WNW,285,0.0,-999.0,73,-99.99,,,0.00,weatherlink.com 1.10,2013-01-13 11:10:00,
2013-01-13 05:25:00,6.5,0.0,30.00,West,275,0.0,-999.0,73,-99.99,,,0.00,weatherlink.com 1.10,2013-01-13 11:25:00,
2013-01-13 05:40:00,6.5,0.0,30.02,West,263,0.0,-999.0,73,-99.99,,,0.00,weatherlink.com 1.10,2013-01-13 11:40:00,
2013-01-13 05:55:00,6.5,0.0,30.02,WNW,294,2.0,-999.0,74,-99.99,,,0.00,weatherlink.com 1.10,2013-01-13 11:55:00,
2013-01-13 06:10:00,6.5,0.0,30.02,West,273,0.0,-999.0,74,-99.99,,,0.00,weatherlink.com 1.10,2013-01-13 12:10:00,
2013-01-13 06:25:00,6.5,0.0,30.04,NNW,344,0.0,-999.0,74,-99.99,,,0.00,weatherlink.com 1.10,2013-01-13 12:25:00,
2013-01-13 06:40:00,6.7,0.0,30.04,North,5,1.0,-999.0,74,-99.99,,,0.00,weatherlink.com 1.10,2013-01-13 12:40:00,
2013-01-13 06:56:00,6.7,0.0,30.05,West,275,1.0,-999.0,74,-99.99,,,0.00,weatherlink.com 1.10,2013-01-13 12:56:00,
2013-01-13 07:11:00,6.7,0.0,30.06,WSW,241,1.0,-999.0,75,-99.99,,,0.00,weatherlink.com 1.10,2013-01-13 13:11:00,
2013-01-13 07:26:00,6.7,0.0,30.07,WNW,299,0.0,-999.0,75,-99.99,,,0.00,weatherlink.com 1.10,2013-01-13 13:26:00,
2013-01-13 07:41:00,6.7,0.0,30.07,West,273,1.0,-999.0,75,-99.99,,,0.00,weatherlink.com 1.10,2013-01-13 13:41:00,
2013-01-13 07:56:00,6.7,1.0,30.07,WNW,298,2.0,-999.0,76,-99.99,,,0.00,weatherlink.com 1.10,2013-01-13 13:56:00,
2013-01-13 08:11:00,6.9,1.0,30.09,West,269,0.0,-999.0,76,-99.99,,,0.00,weatherlink.com 1.10,2013-01-13 14:11:00,
2013-01-13 08:26:00,6.9,1.0,30.09,WNW,282,1.0,-999.0,76,-99.99,,,0.00,weatherlink.com 1.10,2013-01-13 14:26:00,
2013-01-13 08:41:00,7.0,1.0,30.09,WSW,257,1.0,-999.0,75,-99.99,,,0.00,weatherlink.com 1.10,2013-01-13 14:41:00,
2013-01-13 08:56:00,7.2,1.0,30.10,West,267,1.0,-999.0,76,-99.99,,,0.00,weatherlink.com 1.10,2013-01-13 14:56:00,
2013-01-13 09:11:00,7.4,1.0,30.09,West,265,0.0,-999.0,75,-99.99,,,0.00,weatherlink.com 1.10,2013-01-13 15:11:00,
2013-01-13 09:26:00,7.6,1.0,30.09,West,263,1.0,-999.0,75,-99.99,,,0.00,weatherlink.com 1.10,2013-01-13 15:26:00,
2013-01-13 09:42:00,7.9,2.0,30.08,WNW,292,0.0,-999.0,75,-99.99,,,0.00,weatherlink.com 1.10,2013-01-13 15:42:00,
2013-01-13 09:57:00,8.3,2.0,30.08,WNW,300,1.0,-999.0,75,-99.99,,,0.00,weatherlink.com 1.10,2013-01-13 15:57:00,
2013-01-13 10:12:00,8.4,2.0,30.09,NW,315,1.0,-999.0,74,-99.99,,,0.00,weatherlink.com 1.10,2013-01-13 16:12:00,
2013-01-13 10:27:00,8.8,2.0,30.09,WNW,298,2.0,-999.0,74,-99.99,,,0.00,weatherlink.com 1.10,2013-01-13 16:27:00,
2013-01-13 10:42:00,9.2,3.0,30.08,West,271,1.0,-999.0,74,-99.99,,,0.00,weatherlink.com 1.10,2013-01-13 16:42:00,
2013-01-13 10:57:00,9.5,3.0,30.07,WNW,282,0.0,-999.0,73,-99.99,,,0.00,weatherlink.com 1.10,2013-01-13 16:57:00,
2013-01-13 11:12:00,9.9,3.0,30.06,WNW,288,1.0,-999.0,73,-99.99,,,0.00,weatherlink.com 1.10,2013-01-13 17:12:00,
2013-01-13 11:27:00,10.4,3.0,30.06,West,269,1.0,-999.0,73,-99.99,,,0.00,weatherlink.com 1.10,2013-01-13 17:27:00,
2013-01-13 11:43:00,10.7,4.0,30.05,West,277,1.0,-999.0,73,-99.99,,,0.00,weatherlink.com 1.10,2013-01-13 17:43:00,
2013-01-13 11:58:00,11.1,4.0,30.04,North,5,1.0,-999.0,73,-99.99,,,0.00,weatherlink.com 1.10,2013-01-13 17:58:00,
2013-01-13 12:13:00,11.6,4.0,30.03,NNE,19,3.0,-999.0,71,-99.99,,,0.00,weatherlink.com 1.10,2013-01-13 18:13:00,
2013-01-13 12:28:00,11.9,4.0,30.03,WNW,290,2.0,-999.0,69,-99.99,,,0.00,weatherlink.com 1.10,2013-01-13 18:28:00,
2013-01-13 12:43:00,12.1,3.0,30.02,West,278,1.0,-999.0,67,-99.99,,,0.00,weatherlink.com 1.10,2013-01-13 18:43:00,
2013-01-13 12:58:00,12.3,2.0,30.03,West,277,0.0,-999.0,63,-99.99,,,0.00,weatherlink.com 1.10,2013-01-13 18:58:00,
2013-01-13 13:13:00,12.4,2.0,30.04,NNW,327,0.0,-999.0,62,-99.99,,,0.00,weatherlink.com 1.10,2013-01-13 19:13:00,
2013-01-13 13:28:00,12.4,2.0,30.04,ENE,64,0.0,-999.0,64,-99.99,,,0.00,weatherlink.com 1.10,2013-01-13 19:28:00,
2013-01-13 13:44:00,12.4,2.0,30.04,West,273,4.0,-999.0,63,-99.99,,,0.00,weatherlink.com 1.10,2013-01-13 19:44:00,
2013-01-13 13:59:00,12.3,2.0,30.05,West,266,3.0,-999.0,64,-99.99,,,0.00,weatherlink.com 1.10,2013-01-13 19:59:00,
2013-01-13 14:13:00,12.1,3.0,30.05,North,351,0.0,-999.0,68,-99.99,,,0.00,weatherlink.com 1.10,2013-01-13 20:13:00,
2013-01-13 14:28:00,12.1,3.0,30.06,NE,38,0.0,-999.0,66,-99.99,,,0.00,weatherlink.com 1.10,2013-01-13 20:28:00,
2013-01-13 14:43:00,11.7,2.0,30.06,WNW,291,3.0,-999.0,65,-99.99,,,0.00,weatherlink.com 1.10,2013-01-13 20:43:00,
2013-01-13 14:58:00,11.1,1.0,30.06,NNE,13,5.0,-999.0,65,-99.99,,,0.00,weatherlink.com 1.10,2013-01-13 20:58:00,
2013-01-13 15:13:00,11.1,2.0,30.07,SE,146,1.0,-999.0,66,-99.99,,,0.00,weatherlink.com 1.10,2013-01-13 21:13:00,
2013-01-13 15:28:00,10.5,1.0,30.07,WNW,302,2.0,-999.0,66,-99.99,,,0.00,weatherlink.com 1.10,2013-01-13 21:28:00,
2013-01-13 15:44:00,10.4,1.0,30.08,West,262,1.0,-999.0,66,-99.99,,,0.00,weatherlink.com 1.10,2013-01-13 21:44:00,
2013-01-13 15:59:00,9.9,0.0,30.08,North,360,2.0,-999.0,64,-99.99,,,0.00,weatherlink.com 1.10,2013-01-13 21:59:00,
2013-01-13 16:14:00,9.5,-1.0,30.09,North,5,0.0,-999.0,64,-99.99,,,0.00,weatherlink.com 1.10,2013-01-13 22:14:00,
2013-01-13 16:29:00,9.0,-1.0,30.10,North,5,0.0,-999.0,64,-99.99,,,0.00,weatherlink.com 1.10,2013-01-13 22:29:00,
2013-01-13 16:44:00,8.8,-1.0,30.10,NW,319,1.0,-999.0,64,-99.99,,,0.00,weatherlink.com 1.10,2013-01-13 22:44:00,
2013-01-13 16:59:00,8.4,-2.0,30.11,NW,304,1.0,-999.0,64,-99.99,,,0.00,weatherlink.com 1.10,2013-01-13 22:59:00,
2013-01-13 17:14:00,8.1,-2.0,30.11,WNW,286,0.0,-999.0,65,-99.99,,,0.00,weatherlink.com 1.10,2013-01-13 23:14:00,
2013-01-13 17:29:00,8.1,-1.0,30.12,NW,309,3.0,-999.0,66,-99.99,,,0.00,weatherlink.com 1.10,2013-01-13 23:29:00,
2013-01-13 17:44:00,7.9,-2.0,30.12,WNW,287,1.0,-999.0,65,-99.99,,,0.00,weatherlink.com 1.10,2013-01-13 23:44:00,
2013-01-13 17:59:00,7.7,-2.0,30.12,WNW,284,0.0,-999.0,66,-99.99,,,0.00,weatherlink.com 1.10,2013-01-13 23:59:00,
2013-01-13 18:15:00,7.4,-2.0,30.13,NW,317,1.0,-999.0,67,-99.99,,,0.00,weatherlink.com 1.10,2013-01-14 00:15:00,
2013-01-13 18:30:00,7.2,-1.0,30.14,WNW,288,0.0,-999.0,68,-99.99,,,0.00,weatherlink.com 1.10,2013-01-14 00:30:00,
2013-01-13 18:45:00,7.2,-1.0,30.15,West,267,2.0,-999.0,69,-99.99,,,0.00,weatherlink.com 1.10,2013-01-14 00:45:00,
2013-01-13 19:00:00,7.0,-1.0,30.15,West,278,2.0,-999.0,70,-99.99,,,0.00,weatherlink.com 1.10,2013-01-14 01:00:00,
2013-01-13 19:16:00,7.0,-1.0,30.15,NW,304,0.0,-999.0,70,-99.99,,,0.00,weatherlink.com 1.10,2013-01-14 01:16:00,
2013-01-13 19:30:00,6.9,-1.0,30.16,West,278,0.0,-999.0,71,-99.99,,,0.00,weatherlink.com 1.10,2013-01-14 01:30:00,
2013-01-13 19:45:00,6.7,-1.0,30.17,WNW,294,0.0,-999.0,71,-99.99,,,0.00,weatherlink.com 1.10,2013-01-14 01:45:00,
2013-01-13 20:00:00,6.7,-1.0,30.17,WSW,257,0.0,-999.0,72,-99.99,,,0.00,weatherlink.com 1.10,2013-01-14 02:00:00,
2013-01-13 20:16:00,6.5,-1.0,30.18,West,273,0.0,-999.0,72,-99.99,,,0.00,weatherlink.com 1.10,2013-01-14 02:16:00,
2013-01-13 20:31:00,6.3,-1.0,30.18,West,268,2.0,-999.0,72,-99.99,,,0.00,weatherlink.com 1.10,2013-01-14 02:31:00,
2013-01-13 20:46:00,6.1,-1.0,30.19,NW,323,1.0,-999.0,72,-99.99,,,0.00,weatherlink.com 1.10,2013-01-14 02:46:00,
2013-01-13 21:01:00,6.0,-1.0,30.19,WNW,289,0.0,-999.0,72,-99.99,,,0.00,weatherlink.com 1.10,2013-01-14 03:01:00,
2013-01-13 21:16:00,5.8,-1.0,30.19,NE,45,1.0,-999.0,73,-99.99,,,0.00,weatherlink.com 1.10,2013-01-14 03:16:00,
2013-01-13 21:31:00,5.6,-1.0,30.19,West,274,0.0,-999.0,73,-99.99,,,0.00,weatherlink.com 1.10,2013-01-14 03:31:00,
2013-01-13 21:46:00,5.6,-1.0,30.20,WSW,258,0.0,-999.0,73,-99.99,,,0.00,weatherlink.com 1.10,2013-01-14 03:46:00,
2013-01-13 22:01:00,5.4,-1.0,30.21,WNW,294,1.0,-999.0,74,-99.99,,,0.00,weatherlink.com 1.10,2013-01-14 04:01:00,
2013-01-13 22:17:00,5.2,-1.0,30.21,NNW,343,0.0,-999.0,74,-99.99,,,0.00,weatherlink.com 1.10,2013-01-14 04:17:00,
2013-01-13 22:32:00,5.0,-1.0,30.22,West,264,0.0,-999.0,75,-99.99,,,0.00,weatherlink.com 1.10,2013-01-14 04:32:00,
2013-01-13 22:47:00,4.8,-2.0,30.22,WNW,285,0.0,-999.0,75,-99.99,,,0.00,weatherlink.com 1.10,2013-01-14 04:47:00,
2013-01-13 23:17:00,4.7,-1.0,30.22,West,270,0.0,-999.0,76,-99.99,,,0.00,weatherlink.com 1.10,2013-01-14 05:17:00,
2013-01-13 23:32:00,4.5,-2.0,30.23,West,270,0.0,-999.0,76,-99.99,,,0.00,weatherlink.com 1.10,2013-01-14 05:32:00,
2013-01-13 23:47:00,4.3,-1.0,30.24,WSW,242,0.0,-999.0,77,-99.99,,,0.00,weatherlink.com 1.10,2013-01-14 05:47:00,